METEOR 2-5 DEB, 39608

Orbit data source: Space-Track

METEOR 2-5 DEB, 39608 is space debris in LEO originally from a launch on Wed, 31 Oct 1979 UTC launched from the Plesetsk Missile And Space Complex (PKMTR). Debris objects in space refer to the collection of defunct objects orbiting the Earth. Examples of debris include non-operational satellites, rocket bodies, and fragments generated from explosions, collisions, or faulty payload assembly.

Loading next visibility...
Identifier
39608, 1979-095CK
Orbit
LEO
Country
Flag of CISCIS
Related business
Manufacturer
Unknown
Mission
Spacecraft
Bus & Motor
Unknown
Mass
Unknown
Launch date (UTC)
1979-10-31 (46 years ago)
Launch vehicle
Unknown
Launch site
Plesetsk Missile And Space Complex (PKMTR)
Object type
Payload
Rocket body
Debris
Shape & HBR
Unknown shape, 0.1 m
Radar Cross Section
Small (<0.1 m²)

Expand to show TLE details & history
Last TLE update: 3 days ago

TLE from 3 days ago
0 METEOR 2-5 DEB
1 39608U 79095CK  25290.94883277  .00011761  00000-0  37953-2 0  9997
2 39608  81.2034  14.1864 0014180  39.9442 320.2785 14.39048230567790
Epoch: 2025-10-17T22:46Z
TLE epoch observation values (Epoch: 2025-10-17T22:46:19.151Z)
Latitude
-0.00002°
Longitude
5.91973°
Altitude
756.8 km
Speed
7.48 km/s
True Right ascension
00h 56m 44s
True Declination
0° 00' 00"
Sunlit
Object was in full shadow at epoch
Visualization orbit readout
Latitude
Unknown
Longitude
Unknown
Altitude
Unknown
Speed
Unknown
Apparent Right ascension
Unknown
Apparent Declination
Unknown
Sunlit
N/A
Visualization observer readout
Local Sidereal Time
01:19:36
Azimuth
Unknown
Elevation
Unknown
Doppler factor
Unknown
Orbital elements
Apogee altitude
768.902 km
Perigee altitude
748.662 km
Semi-major axis
7,136.919 km
Eccentricity
0.00142
Inclination
81.2034°
RAAN
14.1864°
Arg. of periapsis
39.9442°
True anomaly
320.17452°
Mean anomaly
320.2785°
Eccentric anomaly
320.22652°
Mean motion
3.59979 °/min
Orbital period
100.01 mins
BSTAR
0.0037953
Loading maneuver chart data...
Computing Atmospheric mass density...
Loading historical data...
Loading historical data...
Loading historical data...
Loading historical data...
Loading historical data...
Loading historical data...
Loading historical data...

Documentation

Showing up to 5 results
|